Weather History for Athens, GA

Change the Weather History Date:

Friday, May 31, 2013

  Actual Average Record
Temperature  
Mean Temperature 76 °F 74 °F  
Max Temperature 88 °F 86 °F 100 °F (1918)
Min Temperature 64 °F 63 °F 43 °F (1984)
Cooling Degree Days 11 9  
Month to date cooling degree days 137 182  
Year to date cooling degree days 179 240  
Growing Degree Days 26 (Base 50)    
Moisture  
Dew Point 65 °F    
Average Humidity 68    
Maximum Humidity 93    
Minimum Humidity 43    
Precipitation  
Precipitation T in 0.10 in 1.90 in (1901)
Month to date precipitation 3.63 3.00  
Year to date precipitation 23.08 19.11  
Sea Level Pressure  
Sea Level Pressure 30.17 in    
Wind  
Wind Speed 3 mph (SE)    
Max Wind Speed 9 mph    
Max Gust Speed 16 mph    
Visibility 9 miles    
Events      
T = Trace of Precipitation, MM = Missing Value Source: NWS Daily Summary

Daily Weather History Graph

Daily Weather History Graph

Search for Another Location

Airport:

Trip Planner

Search our weather history database for the weather conditions in past years. The results will help you decide how hot, cold, wet, or windy it might be!

Date:

Astronomy

May. 31, 2013 Rise Set
Actual Time 6:23 AM EDT 8:38 PM EDT
Civil Twilight 5:54 AM EDT 9:07 PM EDT
Nautical Twilight 5:19 AM EDT 9:42 PM EDT
Astronomical Twilight 4:41 AM EDT 10:20 PM EDT
Moon 1:25 AM EDT (5/31) 1:23 PM EDT (5/31)
Length of Visible Light 15h 12m
Length of Day
14h 15m
Waning Gibbous, 51% of the Moon is Illuminated
May 31
Waning Gibbous
May 31
Last Quarter
Jun 8
New
Jun 16
First Quarter
Jun 23
Full

Hourly Weather History & Observations

Time (EDT) Temp. Heat Index Dew Point Humidity Pressure Visibility Wind Dir Wind Speed Gust Speed Precip Events Conditions
12:51 AM 70.0 °F - 64.0 °F 81% 30.18 in 10.0 mi Calm Calm - N/A   Partly Cloudy
1:51 AM 69.1 °F - 64.0 °F 84% 30.18 in 10.0 mi Calm Calm - N/A   Clear
2:51 AM 66.9 °F - 63.0 °F 87% 30.18 in 10.0 mi Calm Calm - N/A   Clear
3:51 AM 64.9 °F - 63.0 °F 93% 30.17 in 9.0 mi Calm Calm - N/A   Partly Cloudy
4:09 AM 64.4 °F - 62.6 °F 94% 30.18 in 8.0 mi East 4.6 mph - N/A   Mostly Cloudy
4:51 AM 66.9 °F - 64.0 °F 90% 30.16 in 8.0 mi Calm Calm - N/A   Overcast
5:51 AM 68.0 °F - 64.9 °F 90% 30.17 in 8.0 mi Variable 3.5 mph - N/A   Overcast
6:11 AM 69.8 °F - 66.2 °F 88% 30.19 in 9.0 mi Calm Calm - N/A   Overcast
6:51 AM 69.1 °F - 66.0 °F 90% 30.18 in 7.0 mi Calm Calm - N/A   Overcast
7:51 AM 71.1 °F - 66.9 °F 87% 30.20 in 6.0 mi Calm Calm - N/A   Overcast
8:15 AM 71.6 °F - 66.2 °F 83% 30.23 in 7.0 mi Calm Calm - N/A   Overcast
8:43 AM 71.6 °F - 66.2 °F 83% 30.23 in 7.0 mi Calm Calm - N/A   Overcast
8:51 AM 72.0 °F - 66.9 °F 84% 30.22 in 8.0 mi Variable 3.5 mph - N/A   Overcast
9:00 AM 71.6 °F - 66.2 °F 83% 30.24 in 8.0 mi Calm Calm - N/A   Overcast
9:51 AM 75.9 °F - 66.9 °F 74% 30.23 in 9.0 mi Calm Calm - N/A   Overcast
9:58 AM 77.0 °F - 66.2 °F 69% 30.24 in 9.0 mi Variable 3.5 mph - N/A   Overcast
10:28 AM 78.8 °F - 66.2 °F 65% 30.23 in 9.0 mi East 3.5 mph - N/A   Mostly Cloudy
10:51 AM 80.1 °F 81.9 °F 64.9 °F 60% 30.22 in 10.0 mi Variable 5.8 mph - N/A   Mostly Cloudy
11:01 AM 78.8 °F - 64.4 °F 61% 30.23 in 10.0 mi SSW 3.5 mph - N/A   Mostly Cloudy
11:51 AM 82.0 °F 83.8 °F 64.9 °F 56% 30.20 in 10.0 mi Variable 4.6 mph - N/A   Scattered Clouds
12:51 PM 84.0 °F 85.8 °F 64.9 °F 53% 30.19 in 10.0 mi Variable 3.5 mph - N/A   Partly Cloudy
1:51 PM 86.0 °F 86.8 °F 63.0 °F 46% 30.16 in 10.0 mi Variable 4.6 mph - N/A   Partly Cloudy
2:51 PM 82.0 °F 83.0 °F 62.1 °F 51% 30.15 in 10.0 mi South 5.8 mph - N/A   Mostly Cloudy
3:51 PM 87.1 °F 87.8 °F 63.0 °F 44% 30.12 in 10.0 mi Variable 5.8 mph - N/A   Partly Cloudy
4:51 PM 84.0 °F 84.9 °F 63.0 °F 49% 30.10 in 10.0 mi SE 5.8 mph - N/A   Partly Cloudy
5:51 PM 86.0 °F 86.8 °F 63.0 °F 46% 30.09 in 10.0 mi Variable 4.6 mph - N/A   Partly Cloudy
6:51 PM 84.9 °F 85.9 °F 63.0 °F 48% 30.09 in 10.0 mi Calm Calm - N/A   Clear
7:51 PM 82.0 °F 83.4 °F 64.0 °F 54% 30.09 in 10.0 mi SSE 3.5 mph - N/A   Partly Cloudy
8:51 PM 77.0 °F - 64.9 °F 66% 30.09 in 10.0 mi Calm Calm - N/A   Clear
9:51 PM 75.0 °F - 66.0 °F 73% 30.09 in 10.0 mi Calm Calm - N/A   Partly Cloudy
10:51 PM 75.0 °F - 68.0 °F 79% 30.10 in 10.0 mi ESE 3.5 mph - 0.00 in   Overcast
11:51 PM 73.9 °F - 64.9 °F 73% 30.10 in 10.0 mi SSE 4.6 mph - N/A   Clear